EWG5ZV EGPH-EDDH

Flight info

Callsign EWG5ZV
Flight time 1h 23m
Altitude 38000
Route TLA Y96 AGPED DCT ERKIT N110 DOLAS L603 LAMSO DCT VALAM DCT GASTU DCT OSTOR T904 RIBSO RIBSO7A
Aircraft A21N/M-SDE2E3FGHIRWXY/LB1

Departure

Time 2026-05-06 17:15
Airport Edinburgh Airport (EGPH)

Arrival

Time 2026-05-06 18:38
Airport Hamburg Helmut Schmidt Airport (EDDH)
Time Latitude Longitude Altitude Speed Heading
2026-05-06 16:50 55.94944 -3.36360 122 ft 0 kts 148°
2026-05-06 17:02 55.94946 -3.36363 117 ft 3 kts 148°
2026-05-06 17:02 55.94969 -3.36389 118 ft 4 kts 142°
2026-05-06 17:02 55.94988 -3.36421 117 ft 4 kts 122°
2026-05-06 17:03 55.94994 -3.36457 118 ft 3 kts 64°
2026-05-06 17:03 55.94992 -3.36463 118 ft 0 kts 59°
2026-05-06 17:06 55.94998 -3.36446 118 ft 5 kts 58°
2026-05-06 17:06 55.95018 -3.36400 119 ft 0 kts 46°
2026-05-06 17:06 55.95019 -3.36399 119 ft 1 kts 42°
2026-05-06 17:06 55.95032 -3.36382 120 ft 4 kts 33°
2026-05-06 17:07 55.95040 -3.36376 120 ft 1 kts 24°
2026-05-06 17:07 55.95042 -3.36374 117 ft 0 kts 20°
2026-05-06 17:07 55.95043 -3.36374 117 ft 0 kts 18°
2026-05-06 17:08 55.94683 -3.37465 122 ft 0 kts 14°
2026-05-06 17:08 55.94304 -3.38991 122 ft 0 kts 14°
2026-05-06 17:09 55.94287 -3.38877 121 ft 0 kts 12°
2026-05-06 17:09 55.94288 -3.38877 121 ft 0 kts 10°
2026-05-06 17:10 55.94290 -3.38877 121 ft 1 kts
2026-05-06 17:10 55.94304 -3.38876 118 ft 3 kts
2026-05-06 17:10 55.94315 -3.38878 120 ft 0 kts 353°
2026-05-06 17:12 55.94357 -3.38886 121 ft 8 kts 355°
2026-05-06 17:12 55.94415 -3.38884 118 ft 8 kts
2026-05-06 17:13 55.94427 -3.38881 117 ft 1 kts 13°
2026-05-06 17:13 55.94438 -3.38874 118 ft 2 kts 19°
2026-05-06 17:13 55.94442 -3.38871 118 ft 0 kts 21°
2026-05-06 17:14 55.94511 -3.38787 114 ft 34 kts 45°
2026-05-06 17:14 55.94791 -3.37863 118 ft 97 kts 60°
2026-05-06 17:14 55.95065 -3.37059 117 ft 128 kts 59°
2026-05-06 17:14 55.95581 -3.35526 241 ft 146 kts 59°
2026-05-06 17:15 55.96085 -3.34021 681 ft 143 kts 57°
2026-05-06 17:15 55.96846 -3.32815 977 ft 152 kts 35°
2026-05-06 17:15 55.97711 -3.31596 1213 ft 165 kts 47°
2026-05-06 17:15 55.98545 -3.30111 1545 ft 175 kts 45°
2026-05-06 17:16 55.99532 -3.28718 1946 ft 186 kts 38°
2026-05-06 17:16 56.00540 -3.27177 2317 ft 200 kts 53°
2026-05-06 17:16 56.01467 -3.25194 2850 ft 215 kts 50°
2026-05-06 17:16 56.02590 -3.23269 3340 ft 235 kts 41°
2026-05-06 17:17 56.03905 -3.21315 3814 ft 255 kts 41°
2026-05-06 17:17 56.05193 -3.19055 4441 ft 265 kts 57°
2026-05-06 17:17 56.05887 -3.15972 5242 ft 267 kts 83°
2026-05-06 17:17 56.05811 -3.12665 6014 ft 270 kts 105°
2026-05-06 17:18 56.05332 -3.10550 6511 ft 272 kts 123°
2026-05-06 17:18 56.04052 -3.08082 7242 ft 273 kts 143°
2026-05-06 17:18 56.02527 -3.06020 8049 ft 276 kts 145°
2026-05-06 17:18 56.00979 -3.03953 8875 ft 279 kts 144°
2026-05-06 17:19 55.99544 -3.01589 9703 ft 285 kts 128°
2026-05-06 17:19 55.98446 -2.98617 10341 ft 295 kts 128°
2026-05-06 17:19 55.97051 -2.96299 10670 ft 307 kts 153°
2026-05-06 17:20 55.95110 -2.95083 10982 ft 321 kts 168°
2026-05-06 17:20 55.92918 -2.94063 11292 ft 341 kts 165°
2026-05-06 17:20 55.90586 -2.92668 11574 ft 360 kts 161°
2026-05-06 17:20 55.88201 -2.90986 11833 ft 377 kts 159°
2026-05-06 17:21 55.85741 -2.89108 12068 ft 392 kts 158°
2026-05-06 17:21 55.83209 -2.87111 12477 ft 399 kts 158°
2026-05-06 17:21 55.80658 -2.85067 12986 ft 403 kts 158°
2026-05-06 17:21 55.78136 -2.83035 13516 ft 406 kts 158°
2026-05-06 17:22 55.75564 -2.80964 13990 ft 409 kts 158°
2026-05-06 17:22 55.72953 -2.78870 14374 ft 413 kts 158°
2026-05-06 17:22 55.70357 -2.76799 14762 ft 416 kts 158°
2026-05-06 17:22 55.67704 -2.74682 15197 ft 419 kts 158°
2026-05-06 17:23 55.65032 -2.72546 15632 ft 422 kts 158°
2026-05-06 17:23 55.62341 -2.70423 16033 ft 425 kts 158°
2026-05-06 17:23 55.59633 -2.68275 16399 ft 428 kts 158°
2026-05-06 17:23 55.56916 -2.66104 16750 ft 430 kts 158°
2026-05-06 17:24 55.54174 -2.63919 17102 ft 433 kts 158°
2026-05-06 17:24 55.51423 -2.61735 17457 ft 435 kts 158°
2026-05-06 17:24 55.48643 -2.59537 17783 ft 438 kts 158°
2026-05-06 17:24 55.45853 -2.57334 18126 ft 441 kts 158°
2026-05-06 17:25 55.43063 -2.55132 18437 ft 443 kts 158°
2026-05-06 17:25 55.40226 -2.52907 18731 ft 445 kts 159°
2026-05-06 17:25 55.37396 -2.50708 19023 ft 447 kts 159°
2026-05-06 17:25 55.34544 -2.48479 19320 ft 450 kts 158°
2026-05-06 17:26 55.31686 -2.46223 19619 ft 451 kts 158°
2026-05-06 17:26 55.28823 -2.43888 19925 ft 455 kts 155°
2026-05-06 17:26 55.26135 -2.40886 20217 ft 460 kts 146°
2026-05-06 17:26 55.23577 -2.37505 20502 ft 462 kts 144°
2026-05-06 17:27 55.21023 -2.34064 20820 ft 464 kts 144°
2026-05-06 17:27 55.18451 -2.30626 21155 ft 466 kts 144°
2026-05-06 17:27 55.15871 -2.27192 21514 ft 468 kts 144°
2026-05-06 17:27 55.13260 -2.23735 21854 ft 471 kts 144°
2026-05-06 17:28 55.10651 -2.20289 22210 ft 473 kts 144°
2026-05-06 17:28 55.08025 -2.16830 22562 ft 476 kts 145°
2026-05-06 17:28 55.05371 -2.13341 22904 ft 478 kts 145°
2026-05-06 17:28 55.02743 -2.09887 23255 ft 481 kts 144°
2026-05-06 17:29 55.00055 -2.06363 23590 ft 483 kts 145°
2026-05-06 17:29 54.97367 -2.02851 23944 ft 484 kts 144°
2026-05-06 17:29 54.94672 -1.99326 24342 ft 483 kts 144°
2026-05-06 17:29 54.91975 -1.95836 24750 ft 483 kts 145°
2026-05-06 17:30 54.89279 -1.92360 25172 ft 483 kts 145°
2026-05-06 17:30 54.86591 -1.88871 25588 ft 482 kts 144°
2026-05-06 17:30 54.83902 -1.85376 25980 ft 482 kts 144°
2026-05-06 17:30 54.81253 -1.81913 26397 ft 482 kts 144°
2026-05-06 17:31 54.78537 -1.78375 26823 ft 481 kts 144°
2026-05-06 17:31 54.75908 -1.74977 27226 ft 481 kts 144°
2026-05-06 17:31 54.73227 -1.71531 27606 ft 480 kts 144°
2026-05-06 17:31 54.70551 -1.68086 28041 ft 479 kts 144°
2026-05-06 17:32 54.67875 -1.64652 28450 ft 479 kts 144°
2026-05-06 17:32 54.65200 -1.61238 28859 ft 478 kts 144°
2026-05-06 17:32 54.62531 -1.57828 29305 ft 477 kts 144°
2026-05-06 17:32 54.59858 -1.54412 29697 ft 476 kts 144°
2026-05-06 17:33 54.57228 -1.51051 29970 ft 479 kts 144°
2026-05-06 17:33 54.54549 -1.47620 30159 ft 482 kts 144°
2026-05-06 17:33 54.51840 -1.44161 30393 ft 484 kts 144°
2026-05-06 17:33 54.49140 -1.40730 30669 ft 483 kts 144°
2026-05-06 17:34 54.46439 -1.37314 31003 ft 481 kts 144°
2026-05-06 17:34 54.43751 -1.33914 31336 ft 480 kts 144°
2026-05-06 17:34 54.41221 -1.30189 31606 ft 480 kts 132°
2026-05-06 17:34 54.39250 -1.25636 31888 ft 479 kts 123°
2026-05-06 17:35 54.37413 -1.20781 32173 ft 479 kts 123°
2026-05-06 17:35 54.35604 -1.16031 32440 ft 479 kts 123°
2026-05-06 17:35 54.33745 -1.11251 32716 ft 478 kts 124°
2026-05-06 17:36 54.32408 -1.07862 32904 ft 478 kts 124°
2026-05-06 17:36 54.30899 -1.04081 33107 ft 478 kts 124°
2026-05-06 17:36 54.29031 -0.99394 33400 ft 476 kts 124°
2026-05-06 17:36 54.27156 -0.94697 33650 ft 476 kts 124°
2026-05-06 17:37 54.25295 -0.90033 33876 ft 475 kts 125°
2026-05-06 17:37 54.23453 -0.85427 34078 ft 475 kts 125°
2026-05-06 17:37 54.21571 -0.80724 34276 ft 474 kts 125°
2026-05-06 17:37 54.19724 -0.76124 34463 ft 473 kts 125°
2026-05-06 17:38 54.17862 -0.71498 34595 ft 473 kts 125°
2026-05-06 17:38 54.15974 -0.66815 34740 ft 474 kts 125°
2026-05-06 17:38 54.14100 -0.62177 34882 ft 474 kts 125°
2026-05-06 17:38 54.12231 -0.57557 35013 ft 474 kts 125°
2026-05-06 17:39 54.10362 -0.52945 35152 ft 474 kts 125°
2026-05-06 17:39 54.08493 -0.48350 35272 ft 474 kts 126°
2026-05-06 17:39 54.06618 -0.43743 35395 ft 474 kts 126°
2026-05-06 17:39 54.04739 -0.39134 35516 ft 474 kts 126°
2026-05-06 17:40 54.02851 -0.34512 35623 ft 474 kts 126°
2026-05-06 17:40 54.00969 -0.29917 35730 ft 475 kts 126°
2026-05-06 17:40 53.97196 -0.20718 35938 ft 474 kts 126°
2026-05-06 17:41 53.95299 -0.16112 36041 ft 474 kts 126°
2026-05-06 17:41 53.93433 -0.11581 36144 ft 474 kts 126°
2026-05-06 17:41 53.91517 -0.06939 36245 ft 474 kts 126°
2026-05-06 17:41 53.89627 -0.02375 36313 ft 474 kts 126°
2026-05-06 17:42 53.87730 0.02193 36424 ft 474 kts 126°
2026-05-06 17:42 53.85838 0.06763 36528 ft 473 kts 126°
2026-05-06 17:42 53.82062 0.15850 36696 ft 473 kts 126°
2026-05-06 17:43 53.78246 0.24978 36841 ft 473 kts 127°
2026-05-06 17:43 53.74447 0.34039 36993 ft 474 kts 127°
2026-05-06 17:44 53.70616 0.43136 37154 ft 473 kts 127°
2026-05-06 17:44 53.66818 0.52130 37315 ft 472 kts 127°
2026-05-06 17:45 53.62996 0.61144 37446 ft 472 kts 127°
2026-05-06 17:45 53.59201 0.70066 37587 ft 472 kts 127°
2026-05-06 17:46 53.55331 0.79132 37694 ft 472 kts 127°
2026-05-06 17:46 53.51530 0.88002 37794 ft 472 kts 127°
2026-05-06 17:47 53.47666 0.96986 37894 ft 472 kts 127°
2026-05-06 17:47 53.43824 1.05887 37996 ft 472 kts 128°
2026-05-06 17:48 53.39957 1.14810 38039 ft 473 kts 128°
2026-05-06 17:48 53.36081 1.23737 38023 ft 472 kts 128°
2026-05-06 17:49 53.32234 1.32557 38021 ft 472 kts 128°
2026-05-06 17:49 53.28330 1.41481 38020 ft 472 kts 128°
2026-05-06 17:50 53.24425 1.50357 38018 ft 472 kts 128°
2026-05-06 17:50 53.20576 1.59099 38006 ft 469 kts 128°
2026-05-06 17:51 53.16699 1.67867 38011 ft 471 kts 128°
2026-05-06 17:51 53.12818 1.76615 38002 ft 470 kts 128°
2026-05-06 17:52 53.08906 1.85399 38004 ft 471 kts 128°
2026-05-06 17:52 53.05001 1.94133 38002 ft 470 kts 128°
2026-05-06 17:53 53.01082 2.02868 37999 ft 471 kts 129°
2026-05-06 17:53 52.97202 2.11474 37989 ft 470 kts 129°
2026-05-06 17:54 52.93274 2.20187 37991 ft 469 kts 129°
2026-05-06 17:54 52.89364 2.28820 37989 ft 470 kts 129°
2026-05-06 17:55 52.85435 2.37462 37984 ft 468 kts 129°
2026-05-06 17:55 52.81522 2.46095 37986 ft 471 kts 127°
2026-05-06 17:56 52.79879 2.50817 37970 ft 474 kts 115°
2026-05-06 17:56 52.79141 2.54214 37966 ft 475 kts 107°
2026-05-06 17:56 52.77539 2.66637 37984 ft 474 kts 103°
2026-05-06 17:57 52.76199 2.77272 37977 ft 474 kts 103°
2026-05-06 17:57 52.74811 2.87911 37972 ft 474 kts 103°
2026-05-06 17:58 52.73733 2.96849 37966 ft 475 kts 97°
2026-05-06 17:58 52.73710 3.02301 37946 ft 477 kts 84°
2026-05-06 17:58 52.74303 3.07659 37976 ft 477 kts 78°
2026-05-06 17:59 52.75816 3.18346 37976 ft 478 kts 77°
2026-05-06 17:59 52.77274 3.29083 37963 ft 478 kts 78°
2026-05-06 18:00 52.78690 3.39747 37964 ft 478 kts 78°
2026-05-06 18:00 52.80099 3.50466 37968 ft 478 kts 78°
2026-05-06 18:01 52.81503 3.61232 37968 ft 478 kts 78°
2026-05-06 18:01 52.82879 3.71863 37969 ft 479 kts 78°
2026-05-06 18:02 52.84283 3.82764 37975 ft 478 kts 78°
2026-05-06 18:02 52.85848 3.93460 37963 ft 478 kts 71°
2026-05-06 18:03 52.88087 4.03799 37972 ft 478 kts 70°
2026-05-06 18:03 52.90309 4.14215 37965 ft 478 kts 71°
2026-05-06 18:04 52.92474 4.24630 37964 ft 478 kts 71°
2026-05-06 18:04 52.94632 4.35058 37959 ft 479 kts 71°
2026-05-06 18:05 52.96727 4.45513 37947 ft 479 kts 76°
2026-05-06 18:05 52.97956 4.56379 37959 ft 479 kts 82°
2026-05-06 18:06 52.98947 4.67292 37941 ft 479 kts 82°
2026-05-06 18:06 52.99919 4.78234 37935 ft 478 kts 82°
2026-05-06 18:07 53.00845 4.88730 37935 ft 478 kts 82°
2026-05-06 18:07 53.01811 4.99721 37935 ft 478 kts 82°
2026-05-06 18:08 53.02767 5.10638 37930 ft 478 kts 82°
2026-05-06 18:08 53.03734 5.21550 37949 ft 477 kts 82°
2026-05-06 18:09 53.04704 5.32498 37948 ft 478 kts 83°
2026-05-06 18:09 53.05668 5.43431 37948 ft 478 kts 82°
2026-05-06 18:10 53.06630 5.54380 37942 ft 478 kts 82°
2026-05-06 18:10 53.07582 5.65273 37935 ft 478 kts 83°
2026-05-06 18:11 53.08537 5.76220 37938 ft 478 kts 83°
2026-05-06 18:11 53.09485 5.87128 37934 ft 476 kts 83°
2026-05-06 18:12 53.10429 5.98034 37950 ft 478 kts 83°
2026-05-06 18:12 53.11383 6.09056 37936 ft 479 kts 83°
2026-05-06 18:13 53.12334 6.20034 37926 ft 478 kts 83°
2026-05-06 18:13 53.13284 6.30988 37927 ft 478 kts 83°
2026-05-06 18:14 53.13631 6.41994 37921 ft 475 kts 92°
2026-05-06 18:14 53.13510 6.52845 37921 ft 476 kts 93°
2026-05-06 18:15 53.13344 6.63989 37898 ft 476 kts 93°
2026-05-06 18:15 53.13182 6.74908 37907 ft 475 kts 93°
2026-05-06 18:16 53.13072 6.85943 37900 ft 477 kts 88°
2026-05-06 18:16 53.14358 6.96780 37913 ft 478 kts 77°
2026-05-06 18:17 53.15814 7.07602 37911 ft 479 kts 79°
2026-05-06 18:17 53.17136 7.18433 37896 ft 477 kts 80°
2026-05-06 18:18 53.18436 7.29273 37903 ft 479 kts 80°
2026-05-06 18:18 53.19709 7.39986 37682 ft 468 kts 80°
2026-05-06 18:19 53.20353 7.45415 36761 ft 472 kts 80°
2026-05-06 18:19 53.20992 7.50816 35628 ft 477 kts 80°
2026-05-06 18:19 53.21631 7.56233 34772 ft 477 kts 80°
2026-05-06 18:19 53.22267 7.61663 34052 ft 475 kts 80°
2026-05-06 18:20 53.22896 7.67040 33213 ft 474 kts 80°
2026-05-06 18:20 53.23525 7.72453 32259 ft 474 kts 80°
2026-05-06 18:20 53.24144 7.77814 31329 ft 475 kts 80°
2026-05-06 18:20 53.24773 7.83277 30348 ft 477 kts 80°
2026-05-06 18:21 53.25393 7.88683 29275 ft 479 kts 80°
2026-05-06 18:21 53.26019 7.94199 28048 ft 482 kts 80°
2026-05-06 18:21 53.26632 7.99738 26796 ft 486 kts 80°
2026-05-06 18:21 53.27264 8.05269 25515 ft 490 kts 79°
2026-05-06 18:22 53.27900 8.10836 24309 ft 495 kts 79°
2026-05-06 18:22 53.28548 8.16575 23279 ft 494 kts 79°
2026-05-06 18:22 53.29174 8.22160 22347 ft 483 kts 79°
2026-05-06 18:22 53.29781 8.27619 21201 ft 473 kts 79°
2026-05-06 18:23 53.30376 8.32992 20156 ft 468 kts 79°
2026-05-06 18:23 53.30960 8.38285 19175 ft 456 kts 79°
2026-05-06 18:23 53.31514 8.43345 18106 ft 447 kts 79°
2026-05-06 18:23 53.32077 8.48509 16858 ft 439 kts 79°
2026-05-06 18:24 53.32620 8.53492 15682 ft 430 kts 79°
2026-05-06 18:24 53.33141 8.58310 14572 ft 426 kts 78°
2026-05-06 18:24 53.33662 8.63168 13743 ft 418 kts 78°
2026-05-06 18:24 53.34163 8.67840 13211 ft 398 kts 78°
2026-05-06 18:25 53.34641 8.72278 12835 ft 379 kts 78°
2026-05-06 18:25 53.35095 8.76539 12536 ft 361 kts 78°
2026-05-06 18:25 53.35522 8.80543 12266 ft 343 kts 78°
2026-05-06 18:25 53.35929 8.84379 11984 ft 328 kts 78°
2026-05-06 18:26 53.36315 8.88043 11697 ft 315 kts 78°
2026-05-06 18:26 53.36686 8.91591 11522 ft 302 kts 78°
2026-05-06 18:26 53.37044 8.94985 11318 ft 293 kts 78°
2026-05-06 18:26 53.37397 8.98337 10898 ft 291 kts 78°
2026-05-06 18:27 53.37742 9.01636 10465 ft 290 kts 78°
2026-05-06 18:27 53.38089 9.04957 10043 ft 290 kts 78°
2026-05-06 18:27 53.38437 9.08307 9623 ft 288 kts 78°
2026-05-06 18:27 53.38778 9.11592 9281 ft 283 kts 78°
2026-05-06 18:28 53.39111 9.14816 8915 ft 279 kts 78°
2026-05-06 18:28 53.39435 9.17973 8522 ft 277 kts 79°
2026-05-06 18:28 53.39759 9.21139 8139 ft 274 kts 78°
2026-05-06 18:28 53.40074 9.24206 7778 ft 272 kts 79°
2026-05-06 18:29 53.40392 9.27329 7407 ft 269 kts 79°
2026-05-06 18:29 53.40706 9.30421 7041 ft 267 kts 79°
2026-05-06 18:29 53.41018 9.33487 6668 ft 265 kts 79°
2026-05-06 18:29 53.41325 9.36509 6304 ft 263 kts 79°
2026-05-06 18:30 53.41582 9.39526 5970 ft 260 kts 83°
2026-05-06 18:30 53.41722 9.42508 5762 ft 252 kts 84°
2026-05-06 18:30 53.41835 9.45307 5591 ft 242 kts 84°
2026-05-06 18:30 53.41949 9.48139 5336 ft 235 kts 84°
2026-05-06 18:31 53.42066 9.50860 5006 ft 231 kts 84°
2026-05-06 18:31 53.42283 9.53484 4664 ft 226 kts 76°
2026-05-06 18:31 53.42749 9.55985 4309 ft 222 kts 67°
2026-05-06 18:31 53.43430 9.58300 4011 ft 221 kts 60°
2026-05-06 18:32 53.44246 9.60454 3957 ft 217 kts 56°
2026-05-06 18:32 53.45139 9.62501 3965 ft 217 kts 53°
2026-05-06 18:32 53.46064 9.64500 3984 ft 217 kts 52°
2026-05-06 18:32 53.47019 9.66454 3993 ft 217 kts 51°
2026-05-06 18:33 53.47982 9.68401 3991 ft 213 kts 51°
2026-05-06 18:33 53.48943 9.70337 3970 ft 214 kts 51°
2026-05-06 18:33 53.49867 9.72199 3783 ft 201 kts 51°
2026-05-06 18:33 53.50726 9.73931 3615 ft 185 kts 51°
2026-05-06 18:34 53.51513 9.75518 3413 ft 175 kts 51°
2026-05-06 18:34 53.52291 9.77086 3156 ft 168 kts 51°
2026-05-06 18:34 53.53024 9.78566 2896 ft 162 kts 51°
2026-05-06 18:34 53.53739 9.80010 2665 ft 160 kts 52°
2026-05-06 18:35 53.54448 9.81452 2426 ft 159 kts 52°
2026-05-06 18:35 53.55157 9.82895 2328 ft 160 kts 51°
2026-05-06 18:35 53.55860 9.84302 2042 ft 155 kts 51°
2026-05-06 18:35 53.56507 9.85600 1784 ft 135 kts 52°
2026-05-06 18:36 53.57080 9.86766 1520 ft 127 kts 51°
2026-05-06 18:36 53.57645 9.87889 1346 ft 129 kts 51°
2026-05-06 18:36 53.58203 9.89066 1137 ft 127 kts 52°
2026-05-06 18:36 53.58781 9.90240 991 ft 133 kts 50°
2026-05-06 18:37 53.59361 9.91403 902 ft 131 kts 51°
2026-05-06 18:37 53.59757 9.92197 782 ft 133 kts 50°
2026-05-06 18:37 53.60554 9.93816 560 ft 135 kts 49°
2026-05-06 18:37 53.61162 9.95023 366 ft 140 kts 50°
2026-05-06 18:38 53.61792 9.96297 133 ft 144 kts 50°
2026-05-06 18:38 53.62427 9.97587 51 ft 133 kts 49°
2026-05-06 18:38 53.62911 9.98564 50 ft 78 kts 50°
2026-05-06 18:38 53.63144 9.99040 52 ft 31 kts 49°
2026-05-06 18:39 53.63275 9.99325 52 ft 28 kts 63°
2026-05-06 18:39 53.63295 9.99476 52 ft 7 kts 91°
2026-05-06 18:39 53.63286 9.99571 53 ft 7 kts 100°
2026-05-06 18:40 53.63283 9.99603 52 ft 0 kts 100°
2026-05-06 18:40 53.63281 9.99617 53 ft 4 kts 100°
2026-05-06 18:40 53.63278 9.99652 54 ft 5 kts 100°
2026-05-06 18:41 53.63274 9.99710 54 ft 3 kts 92°